094  
ASUS45 KTFX 242310  
RWRMT  
MONTANA REGIONAL WEATHER ROUNDUP  
NATIONAL WEATHER SERVICE GREAT FALLS MT  
500 PM MDT FRI MAR 24 2017  
 
NOTE: "FAIR" INDICATES FEW OR NO CLOUDS BELOW 12000 FEET WITH NO  
SIGNIFICANT WEATHER AND/OR S TO VISIBILITY
.  
 
MTZ001>007-043-250000-  
WEST OF THE DIVIDE  
 
CITY SKY/WX TMP DP RH WIND PRES REMARKS
 
KALISPELL LGT RAIN 45 31 58 CALM 29.80F  
MISSOULA CLOUDY 53 34 48 W18G24 29.80S  
BUTTE CLOUDY 54 21 27 S24G33 29.84F  
MULLAN PASS SNOW 31 31 100 VRB6G22 29.79S VSB 1/4 WCI 25  
ANACONDA N/A 55 19 24 SE16G22 29.80F  
DEER LODGE N/A 57 21 24 SE18G24 29.78F  
EUREKA N/A 45 36 70 S8 29.79S  
HAMILTON N/A 55 30 38 SW15G26 29.79R  
PLAINS N/A 53 33 46 SW7 29.83S  

 
 
MTZ008-052>055-250000-  
SOUTHWEST MONTANA  
 
CITY SKY/WX TMP DP RH WIND PRES REMARKS
 
BOZEMAN MOSUNNY 60 16 18 SW8 29.83F  
DILLON PTSUNNY 56 21 25 S28G40 29.86F  
W YELLOWSTONE CLOUDY 43 16 33 SW28G44 30.03F  
ENNIS SUNNY 50 19 29 S35G44 29.95S  
THREE FORKS N/A 57 57 100 S26 29.84F  
TWIN BRIDGES N/A 57 20 24 SE20 29.87F  

 
 
MTZ009-010-012-014-046-048-049-054-250000-  
EAST SLOPES AND CENTRAL MONTANA  
 
CITY SKY/WX TMP DP RH WIND PRES REMARKS
 
CUT BANK CLOUDY 58 24 27 NW8 29.70F  
GREAT FALLS CLOUDY 65 19 17 S20G28 29.71F  
MALMSTROM AFB CLOUDY 65 20 17 S24G35 29.72F  
HELENA MOSUNNY 63 20 19 S16G28 29.75F  
AUGUSTA N/A 59 18 20 W15G23 29.71F  
BOWMANS CRNR PTSUNNY 59 18 20 S15G29 29.69F  
CHOTEAU N/A 61 21 21 S10G17 29.72F  
CONRAD N/A 62 32 32 S18 29.75F  
FAIRFIELD PTSUNNY 61 18 18 S17G24 29.70F  
POWER N/A 61 17 18 S21 29.70F  
RAYNESFORD PTSUNNY 64 17 16 SW21G26 29.74F  

 
 
MTZ011-013-016-021-045-047-050-051-250000-  
NORTH CENTRAL MONTANA  
 
CITY SKY/WX TMP DP RH WIND PRES REMARKS
 
HAVRE CLOUDY 66 23 19 S16 29.73F  
LEWISTOWN CLOUDY 63 20 19 S13G23 29.80F  
N BAR RANCH N/A 57 23 26 S23 29.85F  
CHINOOK N/A 64 25 22 SE8 29.74F  
DENTON N/A 65 22 19 S29G36 29.72F  
FORT BENTON N/A 68 18 14 N9 29.72F  
GEYSER PTSUNNY 63 15 16 SW17G30 29.75F  
GRASS RANGE N/A 62 22 21 S22G31 29.77F  
STANFORD N/A 62 17 17 SW21G36 29.76F  
WINIFRED N/A 63 15 15 SW16G29 29.77F  

 
 
MTZ017>020-022>027-061-062-250000-  
NORTHEAST MONTANA  
 
CITY SKY/WX TMP DP RH WIND PRES REMARKS
 
GLASGOW MOSUNNY 64 27 24 S20 29.85F  
JORDAN N/A 65 28 24 S18G28 29.86F  
SIDNEY SUNNY 64 25 22 S8 29.95F  
WOLF POINT MOSUNNY 66 26 22 S12G23 29.89F  
MALTA SUNNY 64 30 27 S17G25 29.79F  
PLENTYWOOD N/A 57 36 44 SE16 29.94F  
POPLAR N/A 66 27 22 S12G17 29.91F  
SCOBEY N/A 60 30 32 SE13 29.90  

 
 
MTZ028>42-056>058-250000-  
SOUTHCENTRAL AND SOUTHEAST MONTANA  
 
CITY SKY/WX TMP DP RH WIND PRES REMARKS
 
BAKER SUNNY 60 27 28 S15 29.99F  
BILLINGS MOSUNNY 65 22 19 S16G23 29.85F  
LIVINGSTON SUNNY 61 17 18 SW33G43 29.85F  
MILES CITY SUNNY 64 29 26 S17G26 29.91F  
BIG TIMBER SUNNY 61 21 21 NW7 29.86F  
EKALAKA N/A 57 23 27 SE10 29.98F  
FORSYTH N/A 64 30 27 SE15G22 29.89F  
HARLOWTON N/A 64 21 19 S22G33 29.81F  
LAUREL N/A 63 27 25 SE17 29.86F  

 
 
REGIONAL REPORTS...DAKOTAS  
 
CITY SKY/WX TMP DP RH WIND PRES REMARKS
 
WILLISTON SUNNY 57 32 38 E18 29.99F  
MINOT SUNNY 39 29 67 E17 30.13F WCI 30  
DICKINSON PTSUNNY 54 32 43 SE10 30.02F  
BEACH N/A N/A N/A N/A MISG N/A  
TIOGA N/A 46 39 76 SE16 30.05F  
WATFORD CITY N/A 55 37 50 SE20 29.99F  
BISMARCK SUNNY 46 34 62 E13 30.15S  
GRAND FORKS CLOUDY 36 28 73 N9 30.22S WCI 29  
FARGO PTSUNNY 39 32 76 N13 30.19S WCI 31  
BUFFALO SD N/A 60 33 36 SE16G22 29.96F  
RAPID CITY SUNNY 61 28 28 E10 30.05F  

 
 
REGIONAL REPORTS...WYOMING/IDAHO/WASHINGTON  
 
CITY SKY/WX TMP DP RH WIND PRES REMARKS
 
GILLETTE SUNNY 58 27 30 S10 29.99F  
SHERIDAN SUNNY 63 27 25 SE14G22 29.91F  
BUFFALO WY SUNNY 61 26 26 SE15 29.96F  
CODY SUNNY 61 22 22 SE15 29.94F  
YELLOWSTONE LA N/A 42 15 33 MISG 30.08F  
IDAHO FALLS PTSUNNY 57 22 25 SW20G32 30.02F  
SALMON CLOUDY 57 27 30 SW25G35 29.85R  
BOISE LGT RAIN 49 41 74 SE8 29.98S  
SPOKANE LGT RAIN 43 39 86 SW18G30 29.82S  

 
 
REGIONAL REPORTS...ALBERTA  
 
CITY SKY/WX TMP DP RH WIND PRES REMARKS
 
EDMONTON CLOUDY 36 30 80 S13 29.72R WCI 27  
CALGARY PTSUNNY 57 25 28 S14G22 29.58S  
LETHBRIDGE PTSUNNY 59 27 29 SW23 29.67F  
MEDICINE HAT CLOUDY 57 25 28 S13G23 29.71F  
WATERTON GATE N/A 43 30 61 SW20G30 N/A  
MILK RIVER N/A 57 27 30 SW17 N/A  
ONEFOUR N/A 59 21 23 S12 N/A  

 
 
REGIONAL REPORTS...SASKATCHEWAN  
 
CITY SKY/WX TMP DP RH WIND PRES REMARKS
 
SWIFT CURRENT PTSUNNY 54 27 35 S13 29.81F  
REGINA CLOUDY 39 34 81 SE23G31 29.97F WCI 29  
SASKATOON CLOUDY 43 28 56 E15G23 29.95F  
CYPRESS HILLS N/A 52 19 28 S15G25 N/A  
VAL MARIE N/A 59 21 23 S20 N/A  
ASSINIBOIA N/A 36 30 80 E14G20 N/A WCI 27  

 
 
 
CLICK HERE TO GO TO PREVIOUS BULLETINS.

The Nexlab MT Page Main Text Page